Theta_e
314 318 315 312 310 309 310 308 313 317 320 320 322 323 326 328 329 330 329 327 328 331 331 329 327 329 326 324 325 323 320 323 326 326 324 327 327 327 329 330 329 329 330 329 330
313 314 317 316 313 311 309 310 309 311 316 319 320 321 323 325 327 329 328 329 327 327 331 331 328 327 327 324 325 321 319 322 322 321 322 322 323 325 326 327 329 330 329 329 329
311 313 314 317 316 313 311 310 311 311 309 315 319 320 321 322 322 323 325 327 328 327 328 329 327 326 325 325 324 321 320 320 322 322 322 322 323 322 325 324 326 329 329 330 330
310 311 312 313 315 316 314 311 310 312 312 310 316 320 320 321 322 324 322 323 326 329 327 327 329 326 323 323 325 324 323 322 323 322 322 321 322 322 322 323 324 324 326 330 330
309 310 311 311 312 314 316 313 311 310 314 310 311 319 320 321 322 325 327 325 326 328 328 327 328 327 323 323 324 323 323 324 324 324 322 323 322 321 322 323 324 324 325 328 330
309 309 310 311 310 312 314 316 312 310 312 313 309 316 320 320 319 322 324 327 327 329 328 328 328 327 326 324 323 323 324 324 324 324 324 321 322 322 322 322 323 322 324 327 329
308 308 308 309 310 309 312 314 316 311 310 314 310 311 319 319 321 318 321 322 324 326 328 328 328 326 326 325 324 324 323 322 323 324 322 323 322 319 324 324 323 322 322 323 327
308 307 308 309 309 311 309 312 315 313 310 313 313 309 316 318 319 320 320 321 323 324 326 328 327 325 323 324 323 323 323 325 322 323 324 323 325 321 324 323 323 323 322 322 324
307 306 307 307 309 311 310 310 313 314 310 310 313 310 313 315 318 319 320 320 322 324 324 326 326 324 323 323 325 324 328 323 323 322 321 321 322 321 323 324 323 324 324 323 322
307 307 306 306 308 310 310 311 311 314 311 311 312 310 310 315 317 319 319 319 321 324 324 323 323 322 321 325 328 328 325 325 323 321 320 321 320 318 321 321 321 322 323 323 323
306 306 307 307 309 309 310 311 312 314 311 312 312 309 312 310 316 316 319 319 321 322 323 322 323 324 324 323 322 321 322 323 319 320 321 320 320 319 320 320 320 321 323 323 323
305 305 305 307 308 309 310 311 312 313 313 311 311 312 312 311 317 317 316 319 320 321 320 321 323 319 322 321 323 321 322 324 320 319 321 321 321 319 319 319 320 320 321 322 323
304 304 304 305 306 308 309 310 311 311 311 311 311 311 312 314 315 317 318 319 318 319 321 321 318 319 320 320 323 323 322 322 323 319 320 321 322 320 319 319 319 320 321 323 323
301 304 303 303 303 306 308 309 311 311 312 312 311 312 311 311 315 315 317 318 318 319 317 320 317 318 319 321 320 323 319 320 320 322 323 319 323 319 317 318 317 319 320 321 323
302 302 302 302 304 304 307 307 310 311 313 311 311 311 312 312 313 316 315 317 318 318 318 319 318 318 321 320 319 320 317 318 319 322 321 321 322 318 314 315 315 316 317 318 320
302 301 302 302 303 304 305 307 308 312 313 312 311 312 313 313 313 316 317 316 317 316 316 317 314 317 318 317 318 316 318 318 318 321 323 320 321 318 315 316 315 316 315 317 318
300 301 302 302 302 303 304 306 309 311 310 311 312 312 312 313 313 313 316 316 316 317 317 316 316 314 317 320 318 319 319 322 324 324 322 316 319 318 313 314 314 315 314 314 314
299 300 301 302 301 303 304 306 310 309 308 310 312 312 313 312 313 313 314 314 314 313 314 315 318 315 315 319 320 320 320 322 323 322 321 315 319 318 315 316 316 316 313 314 314
298 300 301 301 301 302 305 306 307 306 309 311 312 314 313 313 312 314 313 313 313 314 312 318 319 314 315 319 319 320 322 318 315 305 313 315 315 313 312 314 312 313 312 314 314
301 300 300 301 301 302 305 306 305 307 308 311 313 313 313 313 311 313 313 312 312 313 312 313 316 314 316 317 319 320 318 321 318 322 320 316 314 317 314 312 311 309 311 314 313
301 301 301 300 301 302 304 305 305 307 310 310 310 313 312 312 311 313 312 310 311 312 312 311 315 312 314 319 319 321 319 320 319 314 317 314 313 308 312 311 310 309 312 314 314
299 301 300 300 302 301 304 304 305 306 309 311 310 309 310 311 311 312 310 310 311 312 314 311 313 315 316 313 312 313 317 315 320 320 314 313 314 310 309 309 309 310 311 314 314
300 301 300 300 302 303 302 303 305 308 309 311 310 309 308 310 312 311 309 309 311 312 313 312 314 313 315 315 313 313 312 312 311 311 317 320 316 309 310 309 311 312 314 315 313
300 301 301 301 300 302 302 303 305 305 308 308 310 308 309 310 308 311 308 309 311 312 313 312 311 310 312 310 313 314 313 313 313 316 318 317 315 314 312 311 312 313 313 309 307
300 298 300 301 300 302 302 302 305 308 306 309 310 309 309 311 308 309 306 310 311 312 312 311 311 310 312 311 313 314 314 313 313 314 317 314 313 311 313 312 312 311 311 309 306
298 299 299 298 300 300 303 302 305 306 308 307 309 309 309 310 310 309 307 309 314 312 312 311 310 309 309 310 311 312 313 314 312 313 313 312 312 311 312 312 304 304 303 301 300
300 301 302 302 301 302 303 303 302 306 306 308 308 309 310 309 308 310 310 310 311 313 313 312 305 309 313 308 311 311 310 312 312 313 314 314 312 309 307 303 300 299 298 297 296
Wind_Speed
31 28 28 25 23 22 24 27 28 24 21 20 21 19 19 16 15 17 17 14 13 13 9 5 4 1 2 1 1 1 3 2 2 4 6 2 1 1 5 8 4 3 3 5 9
33 31 28 28 25 23 20 23 25 26 23 20 18 19 19 19 15 19 24 18 14 11 6 8 5 2 2 1 3 3 3 7 1 2 2 5 3 4 3 4 2 5 6 7 11
34 33 31 27 28 24 22 20 22 22 26 22 18 17 18 18 18 25 23 22 18 14 12 6 4 2 3 2 4 4 5 5 3 3 1 3 5 6 2 2 6 8 11 11 15
35 34 33 31 27 26 24 22 20 22 20 24 20 16 16 15 7 5 18 28 22 20 16 13 7 2 2 3 6 1 9 5 2 2 1 2 4 8 2 5 4 8 10 16 18
34 34 32 32 30 27 25 24 22 21 20 21 22 18 18 17 21 3 3 17 25 22 20 16 12 7 3 2 4 3 5 9 9 6 6 5 9 5 14 12 13 11 10 15 20
34 34 32 30 31 29 25 25 23 20 21 19 23 21 21 18 19 25 8 3 13 20 19 17 9 13 5 3 2 2 6 10 7 7 7 5 8 4 7 10 11 9 13 15 21
38 34 33 30 29 31 28 24 23 22 21 19 21 23 25 23 7 19 29 19 8 8 18 19 15 12 6 3 4 7 4 5 5 4 5 5 7 8 19 20 20 22 20 19 22
40 37 35 32 30 29 30 27 22 21 20 20 18 23 14 21 24 10 20 19 16 16 11 19 16 15 6 3 1 2 1 3 4 7 7 5 12 7 15 18 19 19 24 24 25
36 39 37 34 31 27 29 27 23 21 19 20 17 18 8 19 20 25 16 16 20 17 14 14 18 7 5 4 1 3 10 6 5 4 3 4 7 7 16 24 30 30 27 26 29
36 33 35 33 33 29 28 25 22 20 19 18 15 11 16 17 18 19 23 18 19 21 15 11 7 4 3 7 15 9 5 4 6 2 2 5 9 8 19 20 23 25 22 24 23
36 33 31 33 31 31 26 24 16 14 33 13 15 9 3 20 20 23 27 20 16 17 11 11 5 19 12 9 7 3 4 5 1 1 3 4 10 11 19 26 25 30 28 28 27
35 34 33 29 30 29 29 31 32 8 16 28 7 33 9 26 12 24 28 21 15 9 11 4 19 9 6 9 9 5 6 8 3 1 1 4 16 16 22 24 28 31 34 32 33
34 34 33 32 29 27 33 40 25 16 6 23 26 18 19 20 15 25 30 25 8 10 17 16 7 15 10 6 11 12 14 7 4 1 3 4 17 16 22 25 28 31 37 40 40
37 35 33 31 27 31 37 35 23 23 4 6 17 11 19 15 7 18 31 23 8 19 7 12 18 9 10 13 12 15 9 4 7 3 8 5 10 11 6 16 12 28 35 42 49
34 36 36 36 29 40 31 33 32 20 13 14 12 13 22 24 14 19 27 28 10 11 7 10 11 16 13 24 15 14 8 9 13 13 2 5 6 10 5 7 13 19 29 37 42
37 35 36 36 37 37 35 33 29 10 12 11 18 18 16 22 8 14 18 14 7 2 5 4 2 5 9 7 18 7 4 4 5 9 11 19 9 11 8 7 4 7 12 14 10
37 38 39 38 44 35 33 28 10 15 7 8 16 20 28 15 11 9 15 13 11 7 12 7 9 3 2 11 10 10 7 3 7 7 13 9 10 16 5 10 6 4 8 17 19
31 34 37 40 39 35 35 11 17 17 7 4 13 26 24 17 15 5 16 17 14 5 4 4 5 11 7 21 13 17 12 4 6 4 2 5 9 8 14 16 16 14 17 20 21
30 30 37 38 40 41 33 16 14 17 14 10 18 21 14 13 12 13 18 19 16 18 11 6 6 3 9 5 8 9 11 8 3 1 3 5 7 8 10 2 8 24 18 20 20
31 32 39 41 37 39 15 19 10 10 14 13 11 16 15 24 11 21 17 16 8 21 6 7 3 2 4 7 10 6 8 6 5 5 4 6 7 8 5 8 8 10 19 21 18
34 21 29 41 39 26 10 11 7 8 13 23 10 10 18 19 20 25 17 2 11 12 19 5 3 2 1 11 12 5 1 7 1 4 6 2 6 6 9 9 13 14 22 19 14
21 8 25 43 12 5 12 7 15 8 17 11 13 4 17 24 23 21 13 17 21 21 17 6 5 4 4 1 3 3 4 5 4 6 4 1 6 5 8 7 17 17 15 14 10
21 7 30 41 11 9 2 11 5 15 15 15 15 9 9 16 13 12 8 6 25 16 21 11 5 3 2 1 3 3 6 4 2 1 4 6 3 6 11 7 16 19 13 9 10
14 4 10 27 28 8 16 17 10 20 9 10 5 7 10 14 3 11 6 5 26 23 20 18 5 8 9 4 6 7 10 11 6 1 1 2 3 11 8 9 9 9 5 14 14
12 5 9 10 11 6 13 8 16 7 16 17 15 12 14 9 5 8 5 6 11 16 11 10 7 3 0 4 4 7 8 15 11 8 6 3 1 9 6 2 10 7 6 6 10
11 6 8 2 17 23 17 14 14 8 16 10 9 28 25 16 15 16 12 7 14 14 10 4 5 4 2 4 3 3 8 16 13 11 7 12 10 13 16 7 9 13 16 15 13
8 6 6 13 15 18 19 15 25 21 6 20 13 14 20 17 14 28 19 14 17 15 10 9 5 4 5 2 5 5 14 12 8 6 10 8 5 8 10 14 11 13 12 12 13
Wind_Direction
236 235 231 230 228 233 234 233 231 230 230 229 229 229 234 244 245 253 246 243 240 244 253 271 321 242 256 233 152 237 65 218 263 358 295 353 347 50 105 133 177 201 218 264 189
233 233 231 229 227 227 229 232 231 231 229 229 227 226 232 235 244 253 247 247 244 245 262 253 256 247 231 224 207 145 140 211 217 168 322 342 359 331 164 138 194 222 226 220 193
233 231 230 228 228 225 224 225 227 231 229 228 228 225 227 236 256 263 248 249 242 241 227 222 247 291 250 227 204 181 205 198 230 165 34 336 314 344 271 232 226 250 251 222 205
232 231 228 228 228 226 224 223 222 222 225 224 224 225 222 221 217 236 243 239 234 235 234 237 240 231 224 219 235 211 253 222 242 248 255 266 292 315 271 261 276 294 285 237 223
232 232 229 226 226 227 224 222 220 219 219 219 215 219 219 218 214 129 131 209 211 219 224 223 217 210 209 229 314 206 260 266 248 264 279 257 268 247 273 271 290 293 268 242 235
234 230 230 228 224 223 224 222 219 217 215 216 209 210 218 229 239 220 247 131 210 206 212 210 213 210 230 241 196 300 287 286 285 274 260 236 254 215 260 278 262 284 266 248 238
232 232 230 227 223 219 220 221 217 214 212 208 206 210 222 222 200 218 228 248 229 215 215 206 203 188 203 272 251 269 296 299 246 239 246 232 274 218 270 277 270 265 261 257 244
234 232 229 225 220 216 216 218 215 209 208 206 208 209 235 239 219 198 204 214 219 223 209 204 204 216 204 224 304 223 187 239 267 213 237 191 256 261 267 271 264 272 264 251 248
225 229 228 223 221 215 209 212 212 205 201 199 206 203 236 220 214 207 214 213 212 207 209 208 202 197 195 158 172 206 242 211 267 3 314 191 283 302 284 261 264 271 264 263 249
220 218 219 221 217 212 205 203 205 202 185 191 209 189 225 207 209 201 215 212 205 196 185 172 169 194 184 185 223 222 226 223 201 320 10 292 285 305 300 293 288 279 272 276 271
215 214 213 212 209 206 197 186 184 197 184 187 191 197 339 201 193 197 207 199 199 183 195 179 196 223 204 216 240 122 211 219 360 78 341 283 289 288 292 294 290 284 269 266 266
209 213 214 209 205 202 196 191 193 189 184 197 210 204 229 184 172 193 201 195 193 197 185 175 227 204 178 179 213 214 220 231 274 289 247 293 285 286 284 274 266 266 269 267 265
216 215 216 212 208 200 200 202 199 153 168 211 208 213 196 184 196 198 192 195 182 198 192 207 216 183 184 179 203 218 220 200 224 350 234 306 284 275 266 259 262 256 258 259 259
219 214 216 213 208 206 207 202 191 189 184 191 197 227 196 202 234 202 198 185 209 210 180 219 238 188 203 219 195 230 188 199 245 217 258 144 282 272 257 260 254 258 249 250 256
206 210 212 206 201 205 210 200 196 189 220 175 173 186 189 172 138 190 200 200 188 187 178 211 171 193 191 217 194 240 151 185 220 224 185 195 258 276 289 272 270 270 266 262 260
204 206 209 204 206 216 205 196 191 213 217 168 153 169 160 195 176 147 180 190 204 175 224 241 21 200 212 156 186 142 106 165 185 218 235 237 215 271 241 220 291 298 328 266 252
202 199 203 203 205 206 199 184 205 222 145 166 170 167 179 178 164 164 178 182 184 171 207 205 228 262 325 200 182 169 148 209 211 202 232 189 193 236 273 274 210 232 104 106 104
192 196 201 202 206 192 190 203 210 197 176 256 168 174 182 161 194 143 171 197 207 161 131 198 238 195 210 230 199 195 193 194 222 195 185 129 216 245 228 249 255 224 140 116 99
193 195 200 201 200 195 186 211 210 184 189 165 161 172 182 178 174 171 188 199 194 188 178 187 227 130 233 240 197 194 211 151 175 8 113 201 266 295 260 202 111 138 140 115 102
191 188 202 199 199 195 208 211 223 217 163 151 180 178 174 184 162 188 179 197 176 185 170 179 165 225 277 219 220 223 165 170 209 204 207 238 252 225 190 187 141 140 144 127 117
184 184 200 196 194 201 213 213 188 215 175 188 181 171 195 179 194 192 193 168 155 169 179 137 160 155 319 202 213 203 244 209 143 189 210 195 248 230 201 165 157 168 144 144 115
173 170 179 187 191 192 208 165 187 209 223 191 174 145 187 184 193 192 207 193 169 152 180 165 161 193 202 338 15 84 213 230 228 195 242 140 264 346 172 145 142 155 148 130 93
146 114 175 187 200 206 172 197 209 188 209 184 180 185 166 173 188 180 168 173 165 166 167 159 171 136 209 160 185 196 182 164 186 200 218 215 263 357 39 86 130 129 131 125 65
145 153 156 181 209 213 198 186 199 218 227 218 191 121 120 171 189 178 143 162 176 180 171 157 169 186 210 183 136 196 202 191 154 191 256 316 169 81 32 4 39 82 56 72 74
167 190 184 169 197 193 183 184 177 183 209 216 210 182 159 155 124 163 129 121 172 186 165 166 187 186 147 169 145 194 184 184 192 185 146 196 330 294 279 261 293 92 119 94 66
149 149 166 212 183 187 187 199 192 179 191 213 212 188 176 171 185 174 150 156 171 167 165 180 173 163 116 140 131 165 193 196 200 196 196 209 214 181 249 193 94 89 93 82 66
189 146 185 175 174 185 200 190 204 185 240 209 218 164 188 195 181 173 164 141 148 172 167 158 128 153 185 220 92 282 222 199 198 201 204 206 192 155 149 124 96 84 74 61 36